sat.trackr.live / text

‹ back to catalog

YAOGAN-30 05C

NORAD 43172 · 2018-011D

PAYLOAD ACTIVE UNKNOWN

§ Identity

Operator
Country
PRC
Launch date
2018-01-25
Launch site
XICLF
Launch vehicle
Mass (kg)
RCS (m²)

External: N2YO · Heavens-Above · Gunter

§ Orbital elements

Epoch: 2026-05-25T02:28:59.706912Z

Period
95.83 min
Inclination
34.9972°
Eccentricity
0.0002515
Mean motion
15.02590149 rev/d
Perigee alt
557.2 km
Apogee alt
560.7 km
Semi-major
6,937.0 km
B*
1.8398e-4
RAAN
291.6417°
Arg perigee
242.5110°
Mean anomaly
117.5342°
Rev number
45,461

§ Raw data

YAOGAN-30 05C1 43172U 18011D   26145.10346883  .00002470  00000+0  18398-3 0  99932 43172  34.9972 291.6417 0002515 242.5110 117.5342 15.02590149454610

JSON: /api/v1/satellites/43172 · /tle

For live sub-satellite position, see the globe view (requires WebGL).

§ Visibility from observer

Set your observer location to see the next 7 days of passes ≥ 10°. The values pass through the URL so the page stays shareable.

No JS? Fill the form by hand. The geolocation button needs JavaScript.